Sand Point, AK

8:48 PM AKDT on April 22, 2018 (GMT -0800)
Sand Point

Weather History for PASD - March, 2013

Change the Weather History Date:

Sunday, March 17, 2013

  Actual Average Record
Temperature  
Mean Temperature 32 °F -  
Max Temperature 37 °F 33 °F 42 °F (1987)
Min Temperature 26 °F 27 °F 6 °F (2009)
Degree Days  
Heating Degree Days 34    
Moisture  
Dew Point 29 °F    
Average Humidity 86    
Maximum Humidity 100    
Minimum Humidity 65    
Precipitation  
Precipitation 0.00 in - - ()
Sea Level Pressure  
Sea Level Pressure 30.33 in    
Wind  
Wind Speed 3 mph (SW)    
Max Wind Speed 16 mph    
Max Gust Speed -    
Visibility 10 miles    
Events      
Averages and records for this station are not official NWS values.
T = Trace of Precipitation, MM = Missing Value Source: NWS Daily Summary

Daily Weather History Graph

Daily Weather History Graph

Search for Another Location

Airport or City:

Astronomy

Mar. 17, 2013 Rise Set
Actual Time 8:50 AM AKDT 8:50 PM AKDT
Civil Twilight 8:14 AM AKDT 9:27 PM AKDT
Nautical Twilight 7:31 AM AKDT 10:10 PM AKDT
Astronomical Twilight 6:46 AM AKDT 10:55 PM AKDT
Moon 11:15 AM AKDT (3/17) 3:04 AM AKDT (3/17)
Length of Visible Light 13h 12m
Length of Day
12h 00m
Waxing Crescent, 33% of the Moon is Illuminated
Mar 17
Waxing Crescent
Mar 19
First Quarter
Mar 27
Full
Apr 2
Last Quarter
Apr 10
New

Hourly Weather History & Observations

Time (AKDT) Temp. Windchill Dew Point Humidity Pressure Visibility Wind Dir Wind Speed Gust Speed Precip Events Conditions
12:16 AM 30.2 °F - 28.4 °F 93% 30.32 in 10.0 mi Calm Calm - N/A   Clear
12:36 AM 30.2 °F - 28.4 °F 93% 30.32 in 10.0 mi Calm Calm - N/A   Clear
12:56 AM 30.2 °F - 28.4 °F 93% 30.32 in 10.0 mi Calm Calm - N/A   Clear
1:16 AM 30.2 °F - 30.2 °F 100% 30.32 in 10.0 mi Calm Calm - N/A   Clear
1:36 AM 30.2 °F - 28.4 °F 93% 30.32 in 10.0 mi Calm Calm - N/A   Clear
1:56 AM 30.2 °F - 28.4 °F 93% 30.32 in 10.0 mi Calm Calm - N/A   Clear
2:16 AM 30.2 °F - 28.4 °F 93% 30.33 in 10.0 mi Calm Calm - N/A   Clear
2:36 AM 30.2 °F - 28.4 °F 93% 30.33 in 10.0 mi Calm Calm - N/A   Clear
2:56 AM 30.2 °F - 28.4 °F 93% 30.33 in 10.0 mi Calm Calm - N/A   Clear
3:16 AM 28.4 °F - 28.4 °F 100% 30.34 in 10.0 mi Calm Calm - N/A   Clear
3:36 AM 28.4 °F - 28.4 °F 100% 30.34 in 10.0 mi Calm Calm - N/A   Clear
3:56 AM 28.4 °F - 28.4 °F 100% 30.34 in 10.0 mi Calm Calm - N/A   Clear
4:16 AM 28.4 °F - 28.4 °F 100% 30.34 in 10.0 mi Calm Calm - N/A   Clear
4:36 AM 28.4 °F - 26.6 °F 93% 30.34 in 10.0 mi Calm Calm - N/A   Clear
4:56 AM 28.4 °F - 26.6 °F 93% 30.34 in 10.0 mi Calm Calm - N/A   Clear
5:16 AM 28.4 °F - 26.6 °F 93% 30.34 in 10.0 mi Calm Calm - N/A   Clear
5:36 AM 28.4 °F - 28.4 °F 100% 30.34 in 10.0 mi Calm Calm - N/A   Clear
5:56 AM 26.6 °F - 24.8 °F 93% 30.34 in 10.0 mi Calm Calm - N/A   Clear
6:16 AM 28.4 °F - 28.4 °F 100% 30.34 in 10.0 mi Calm Calm - N/A   Clear
6:36 AM 28.4 °F - 28.4 °F 100% 30.34 in 10.0 mi Calm Calm - N/A   Clear
6:56 AM 26.6 °F - 26.6 °F 100% 30.35 in 10.0 mi Calm Calm - N/A   Clear
7:16 AM 28.4 °F - 28.4 °F 100% 30.35 in 10.0 mi Calm Calm - N/A   Clear
7:36 AM 26.6 °F - 26.6 °F 100% 30.36 in 10.0 mi Calm Calm - N/A   Clear
7:56 AM 26.6 °F - 26.6 °F 100% 30.35 in 10.0 mi Calm Calm - N/A   Clear
8:16 AM 26.6 °F - 24.8 °F 93% 30.35 in 10.0 mi Calm Calm - N/A   Clear
8:56 AM 28.4 °F - 28.4 °F 100% 30.35 in 10.0 mi Calm Calm - N/A   Clear
9:16 AM 28.4 °F - 28.4 °F 100% 30.35 in 10.0 mi Calm Calm - N/A   Partly Cloudy
9:36 AM 28.4 °F - 28.4 °F 100% 30.35 in 10.0 mi Calm Calm - N/A   Partly Cloudy
10:16 AM 30.2 °F 26.7 °F 30.2 °F 100% 30.35 in 10.0 mi SSE 3.5 mph - N/A   Partly Cloudy
10:36 AM 33.8 °F 30.8 °F 32.0 °F 93% 30.35 in 10.0 mi SSE 3.5 mph - N/A   Partly Cloudy
10:56 AM 33.8 °F 30.8 °F 32.0 °F 93% 30.35 in 10.0 mi SE 3.5 mph - N/A   Partly Cloudy
11:16 AM 35.6 °F 30.7 °F 33.8 °F 93% 30.35 in 10.0 mi SSE 5.8 mph - N/A   Partly Cloudy
11:36 AM 35.6 °F 30.7 °F 33.8 °F 93% 30.35 in 10.0 mi South 5.8 mph - N/A   Partly Cloudy
11:56 AM 35.6 °F 31.7 °F 33.8 °F 93% 30.35 in 10.0 mi SE 4.6 mph - N/A   Scattered Clouds
12:16 PM 35.6 °F 29.2 °F 33.8 °F 93% 30.35 in 10.0 mi SSE 8.1 mph - N/A   Scattered Clouds
12:36 PM 37.4 °F 30.3 °F 33.8 °F 87% 30.34 in 10.0 mi SSE 10.4 mph - N/A   Scattered Clouds
12:56 PM 35.6 °F 29.2 °F 32.0 °F 87% 30.34 in 10.0 mi SSE 8.1 mph - N/A   Mostly Cloudy
1:16 PM 37.4 °F 28.5 °F 32.0 °F 81% 30.34 in 10.0 mi South 15.0 mph - N/A   Mostly Cloudy
1:36 PM 37.4 °F 29.3 °F 30.2 °F 75% 30.34 in 10.0 mi South 12.7 mph - N/A   Mostly Cloudy
1:56 PM 37.4 °F 28.2 °F 30.2 °F 75% 30.34 in 10.0 mi South 16.1 mph - N/A   Mostly Cloudy
2:16 PM 37.4 °F 29.3 °F 30.2 °F 75% 30.35 in 10.0 mi SSW 12.7 mph - N/A   Mostly Cloudy
2:36 PM 37.4 °F 28.9 °F 30.2 °F 75% 30.34 in 10.0 mi SSW 13.8 mph - N/A   Mostly Cloudy
2:56 PM 37.4 °F 30.8 °F 28.4 °F 70% 30.34 in 10.0 mi SSW 9.2 mph - N/A   Mostly Cloudy
3:16 PM 37.4 °F 31.4 °F 30.2 °F 75% 30.33 in 10.0 mi SSW 8.1 mph - N/A   Mostly Cloudy
3:36 PM 37.4 °F 29.8 °F 30.2 °F 75% 30.34 in 10.0 mi SW 11.5 mph - N/A   Mostly Cloudy
3:56 PM 37.4 °F 31.4 °F 30.2 °F 75% 30.34 in 10.0 mi SW 8.1 mph - N/A   Mostly Cloudy
4:16 PM 37.4 °F 30.3 °F 28.4 °F 70% 30.33 in 10.0 mi SW 10.4 mph - N/A   Mostly Cloudy
4:36 PM 37.4 °F 31.4 °F 28.4 °F 70% 30.33 in 10.0 mi WSW 8.1 mph - N/A   Mostly Cloudy
4:56 PM 37.4 °F 30.3 °F 28.4 °F 70% 30.33 in 10.0 mi WSW 10.4 mph - N/A   Mostly Cloudy
5:16 PM 37.4 °F 30.3 °F 28.4 °F 70% 30.33 in 10.0 mi SW 10.4 mph - N/A   Mostly Cloudy
5:36 PM 37.4 °F 31.4 °F 28.4 °F 70% 30.32 in 10.0 mi WSW 8.1 mph - N/A   Mostly Cloudy
5:56 PM 37.4 °F 30.8 °F 26.6 °F 65% 30.31 in 10.0 mi SW 9.2 mph - N/A   Mostly Cloudy
6:16 PM 37.4 °F 30.8 °F 28.4 °F 70% 30.31 in 10.0 mi WSW 9.2 mph - N/A   Mostly Cloudy
6:36 PM 37.4 °F 30.8 °F 28.4 °F 70% 30.31 in 10.0 mi WSW 9.2 mph - N/A   Mostly Cloudy
6:56 PM 37.4 °F 30.8 °F 28.4 °F 70% 30.30 in 10.0 mi WSW 9.2 mph - N/A   Mostly Cloudy
7:16 PM 37.4 °F 31.4 °F 28.4 °F 70% 30.30 in 10.0 mi SW 8.1 mph - N/A   Mostly Cloudy
7:36 PM 37.4 °F 32.8 °F 28.4 °F 70% 30.31 in 10.0 mi WSW 5.8 mph - N/A   Mostly Cloudy
7:56 PM 37.4 °F 32.1 °F 28.4 °F 70% 30.30 in 10.0 mi WSW 6.9 mph - N/A   Mostly Cloudy
8:16 PM 37.4 °F 32.8 °F 28.4 °F 70% 30.30 in 10.0 mi West 5.8 mph - N/A   Overcast
8:36 PM 35.6 °F 29.9 °F 28.4 °F 75% 30.31 in 10.0 mi West 6.9 mph - N/A   Overcast
8:56 PM 35.6 °F 30.7 °F 28.4 °F 75% 30.32 in 10.0 mi West 5.8 mph - N/A   Overcast
9:16 PM 35.6 °F 29.9 °F 30.2 °F 81% 30.32 in 10.0 mi West 6.9 mph - N/A   Overcast
9:36 PM 35.6 °F 31.7 °F 30.2 °F 81% 30.32 in 10.0 mi West 4.6 mph - N/A   Overcast
9:56 PM 35.6 °F 29.2 °F 30.2 °F 81% 30.32 in 10.0 mi West 8.1 mph - N/A   Overcast
10:16 PM 35.6 °F 31.7 °F 30.2 °F 81% 30.31 in 10.0 mi WNW 4.6 mph - N/A   Mostly Cloudy
10:36 PM 35.6 °F 27.5 °F 30.2 °F 81% 30.31 in 10.0 mi WNW 11.5 mph - N/A   Partly Cloudy
10:56 PM 35.6 °F 28.0 °F 30.2 °F 81% 30.32 in 10.0 mi WNW 10.4 mph - N/A   Clear
11:16 PM 33.8 °F 27.7 °F 28.4 °F 81% 30.32 in 10.0 mi NW 6.9 mph - N/A   Clear
11:36 PM 33.8 °F 30.8 °F 28.4 °F 81% 30.32 in 10.0 mi WNW 3.5 mph - N/A   Clear
11:56 PM 33.8 °F 27.7 °F 28.4 °F 81% 30.32 in 10.0 mi NW 6.9 mph - N/A   Clear